Regional Weather Roundup
Issued by NWS

Home | Current Version | Previous Version | Graphics & Text | Print | Product List | Glossary On
Versions: 1 2 3 4 5 6 7 8 9 10 11 12 13 14 15 16 17 18 19 20 21 22 23 24 25 26 27 28 29 30 31 32 33 34 35 36 37 38 39 40 41 42 43 44 45 46 47 48 49 50
000
ASUS45 KABQ 041510
RWRNM
NEW MEXICO REGIONAL WEATHER ROUNDUP
NATIONAL WEATHER SERVICE ALBUQUERQUE NM
900 AM MDT WED MAY 04 2016

NOTE: "FAIR" MEANS FEW OR NO CLOUDS BELOW 12,000 FEET AGL WITH NO
       SIGNIFICANT WEATHER OR OBSTRUCTIONS TO VISION.

      THIS PRODUCT IS RELEASED AS TWO VERSIONS.  ONE VERSION NEAR
      THE TOP OF THE HOUR CONTAINING PRELIMINARY DATA FROM ALBUQUERQUE
      AND OTHER STATIONS.  A FINAL VERSION WITH ADDITIONAL DATA IS
      ISSUED ABOUT 10 MINUTES AFTER THE HOUR.

NMZ501-503-504-510>518-041600-
NORTHWEST PLATEAU/NORTHCENTRAL MOUNTAINS

CITY           SKY/WX    TMP DP  RH WIND       PRES   REMARKS
FARMINGTON     FAIR      57  34  41 E12       30.30S
LOS ALAMOS     FAIR      52  22  31 E3        30.42R
SANTA FE       FAIR      57  26  30 CALM      30.37S
TAOS           FAIR      48  30  49 CALM      30.41F
ANGEL FIRE     FAIR      39  30  72 CALM      30.45F

$$
NMZ402-403-502-505>509-041600-
WESTCENTRAL MOUNTAINS/SOUTHWEST MOUNTAINS

CITY           SKY/WX    TMP DP  RH WIND       PRES   REMARKS
GALLUP         FAIR      57  33  40 E6        30.33S
GRANTS         FAIR      51  37  58 CALM      30.38S
SILVER CITY      N/A     63  30  29 SE14G20   30.32S

$$
NMZ407-409-411-412-041600-
SOUTHERN DESERTS

CITY           SKY/WX    TMP DP  RH WIND       PRES   REMARKS
LORDSBURG      FAIR      68  32  26 E28G36    30.23S
DEMING         FAIR      66  35  31 E12       30.26R
LAS CRUCES     FAIR      67  34  29 SE9       30.28S
HOLLOMAN AFB   FAIR      65  31  28 SW5       30.26S
ALAMOGORDO     FAIR      63  30  29 NW6       30.28S
T OR C         FAIR      63  31  30 NE6       30.29R

$$
NMZ519>523-041600-
CENTRAL VALLEYS/CENTRAL HIGHLANDS

CITY           SKY/WX    TMP DP  RH WIND       PRES   REMARKS
ALBUQUERQUE    FAIR      57  31  37 N9        30.33S
DOUBLE EAGLE   SUNNY     57  30  35 N6        30.35S
MORIARTY ARPT  FAIR      54  26  33 CALM      30.38S
CLINES CORNERS FAIR      57  23  26 VRB6      30.37S
BELEN          FAIR      61  31  32 CALM      30.33S
SOCORRO        FAIR      62  29  29 N9        30.31R

$$
NMZ524>526-539-540-041600-
SOUTHCENTRAL MOUNTAINS

CITY           SKY/WX    TMP DP  RH WIND       PRES   REMARKS
RUIDOSO          N/A     55  27  33 S7        30.40S

$$
NMZ527>531-041600-
NORTHEAST HIGHLANDS/NORTHEAST PLAINS

CITY           SKY/WX    TMP DP  RH WIND       PRES   REMARKS
LAS VEGAS      FAIR      54  28  36 S6        30.38S
RATON          FAIR      53  32  44 VRB3      30.34S
CLAYTON        FAIR      66  35  31 NW8       30.27R

$$
NMZ532>537-041600-
EASTCENTRAL PLAINS

CITY           SKY/WX    TMP DP  RH WIND       PRES   REMARKS
TUCUMCARI      FAIR      64  32  30 W12       30.26S
CANNON AFB     FAIR      66  32  28 W14       30.26F
CLOVIS AIRPORT FAIR      66  36  32 NW13      30.27S

$$
NMZ028-029-538-041600-
SOUTHEAST PLAINS

CITY           SKY/WX    TMP DP  RH WIND       PRES   REMARKS
ROSWELL        FAIR      59  35  40 N6        30.27S
ARTESIA        FAIR      63  34  34 N5        30.28S
CARLSBAD       FAIR      65  37  35 NW7       30.25S
HOBBS          SUNNY     66  36  32 W7        30.26S


$$



USA.gov is the U.S. government's official web portal to all federal, state and local government web resources and services.